Tel Aviv, Israel

7:27 AM IDT on May 25, 2017 (GMT +0300)
Ben Gurion

Weather History for LLBG - April, 2013

Change the Weather History Date:

Tuesday, April 9, 2013

  Actual Average Record
Temperature  
Mean Temperature 64 °F -  
Max Temperature 70 °F 75 °F 97 °F (2016)
Min Temperature 57 °F 58 °F 50 °F (1997)
Degree Days  
Heating Degree Days 2    
Growing Degree Days 14 (Base 50)    
Moisture  
Dew Point 53 °F    
Average Humidity 66    
Maximum Humidity 82    
Minimum Humidity 48    
Precipitation  
Precipitation 0.00 in - - ()
Sea Level Pressure  
Sea Level Pressure 30.00 in    
Wind  
Wind Speed 7 mph ()    
Max Wind Speed 16 mph    
Max Gust Speed -    
Visibility 6.2 miles    
Events      
Averages and records for this station are not official NWS values.
T = Trace of Precipitation, MM = Missing Value Source: Averaged Metar Reports

Daily Weather History Graph

Daily Weather History Graph

Search for Another Location

Airport or City:

Trip Planner

Search our weather history database for the weather conditions in past years. The results will help you decide how hot, cold, wet, or windy it might be!

Date:

Astronomy

Apr. 09, 2013 Rise Set
Actual Time 6:18 AM IDT 7:05 PM IDT
Civil Twilight 5:54 AM IDT 7:30 PM IDT
Nautical Twilight 5:24 AM IDT 7:59 PM IDT
Astronomical Twilight 4:54 AM IDT 8:29 PM IDT
Moon 5:27 AM IDT (4/9) 6:20 PM IDT (4/9)
Length of Visible Light 13h 36m
Length of Day
12h 46m
Waning Crescent, 1% of the Moon is Illuminated
Apr 9
Waning Crescent
Apr 10
New
Apr 18
First Quarter
Apr 25
Full
May 2
Last Quarter

Hourly Weather History & Observations

Time (IDT) Temp. Dew Point Humidity Pressure Visibility Wind Dir Wind Speed Gust Speed Precip Events Conditions
12:20 AM 62.6 °F 51.8 °F 68% 29.98 in 6.2 mi Variable 3.5 mph - N/A   Partly Cloudy
12:50 AM 60.8 °F 51.8 °F 72% 29.98 in 6.2 mi Variable 3.5 mph - N/A   Partly Cloudy
1:20 AM 60.8 °F 51.8 °F 72% 29.98 in 6.2 mi WSW 4.6 mph - N/A   Partly Cloudy
1:50 AM 60.8 °F 51.8 °F 72% 29.98 in 6.2 mi Variable 3.5 mph - N/A   Scattered Clouds
2:20 AM 60.8 °F 51.8 °F 72% 29.98 in 6.2 mi SSW 4.6 mph - N/A   Partly Cloudy
2:50 AM 59.0 °F 51.8 °F 77% 29.95 in 6.2 mi South 4.6 mph - N/A   Partly Cloudy
3:00 AM 60 °F 51 °F 65% 29.97 in 6 mi South 4.6 mph - -   Scattered Clouds
3:20 AM 59.0 °F 51.8 °F 77% 29.98 in 6.2 mi South 5.8 mph - N/A   Scattered Clouds
3:50 AM 59.0 °F 51.8 °F 77% 29.95 in 6.2 mi South 5.8 mph - N/A   Scattered Clouds
4:20 AM 59.0 °F 51.8 °F 77% 29.95 in 6.2 mi South 5.8 mph - N/A   Scattered Clouds
4:50 AM 59.0 °F 51.8 °F 77% 29.95 in 6.2 mi South 5.8 mph - N/A   Mostly Cloudy
5:20 AM 57.2 °F 51.8 °F 82% 29.98 in 6.2 mi South 5.8 mph - N/A   Mostly Cloudy
5:50 AM 57.2 °F 51.8 °F 82% 29.98 in 6.2 mi South 8.1 mph - N/A   Scattered Clouds
6:20 AM 57.2 °F 51.8 °F 82% 29.98 in 6.2 mi South 8.1 mph - N/A   Scattered Clouds
6:50 AM 57.2 °F 51.8 °F 82% 29.98 in 6.2 mi South 6.9 mph - N/A   Scattered Clouds
7:20 AM 57.2 °F 51.8 °F 82% 29.98 in 6.2 mi South 6.9 mph - N/A   Scattered Clouds
7:50 AM 60.8 °F 51.8 °F 72% 29.98 in 6.2 mi South 8.1 mph - N/A   Scattered Clouds
8:20 AM 62.6 °F 53.6 °F 72% 30.01 in 6.2 mi South 9.2 mph - N/A   Scattered Clouds
8:50 AM 66.2 °F 53.6 °F 64% 30.01 in 6.2 mi SSW 9.2 mph - N/A   Partly Cloudy
9:00 AM 65 °F 54 °F 58% 30.01 in 6 mi SSW 9.2 mph - -   Scattered Clouds
9:20 AM 66.2 °F 53.6 °F 64% 30.01 in 6.2 mi SSW 10.4 mph - N/A   Partly Cloudy
9:50 AM 66.2 °F 51.8 °F 60% 30.01 in 6.2 mi SW 11.5 mph - N/A   Mostly Cloudy
10:20 AM 66.2 °F 51.8 °F 60% 30.01 in 6.2 mi SW 11.5 mph - N/A   Mostly Cloudy
10:50 AM 68.0 °F 51.8 °F 56% 30.01 in 6.2 mi WSW 12.7 mph - N/A   Mostly Cloudy
11:20 AM 69.8 °F 51.8 °F 53% 30.01 in 6.2 mi SW 12.7 mph - N/A   Mostly Cloudy
11:50 AM 66.2 °F 55.4 °F 68% 30.01 in 6.2 mi SW 10.4 mph - N/A   Mostly Cloudy
12:20 PM 68.0 °F 51.8 °F 56% 30.01 in 6.2 mi West 15.0 mph - N/A   Mostly Cloudy
12:50 PM 68.0 °F 50.0 °F 52% 30.01 in 6.2 mi WSW 13.8 mph - N/A   Scattered Clouds
1:20 PM 69.8 °F 51.8 °F 53% 30.01 in 6.2 mi WSW 12.7 mph - N/A   Scattered Clouds
1:50 PM 69.8 °F 51.8 °F 53% 30.01 in 6.2 mi WSW 13.8 mph - N/A   Mostly Cloudy
2:20 PM 69.8 °F 55.4 °F 60% 30.01 in 6.2 mi West 16.1 mph - N/A   Mostly Cloudy
2:50 PM 68.0 °F 53.6 °F 60% 30.01 in 6.2 mi West 15.0 mph - N/A   Mostly Cloudy
3:00 PM 69 °F 54 °F 48% 30.01 in 6 mi West 13.8 mph - -   Mostly Cloudy
3:20 PM 69.8 °F 53.6 °F 56% 29.98 in 6.2 mi West 15.0 mph - N/A   Mostly Cloudy
3:50 PM 69.8 °F 53.6 °F 56% 29.98 in 6.2 mi West 16.1 mph - N/A   Scattered Clouds
4:20 PM 68.0 °F 53.6 °F 60% 29.98 in 6.2 mi West 15.0 mph - N/A   Mostly Cloudy
4:50 PM 68.0 °F 53.6 °F 60% 29.98 in 6.2 mi West 13.8 mph - N/A   Mostly Cloudy
5:20 PM 68.0 °F 53.6 °F 60% 29.98 in 6.2 mi West 13.8 mph - N/A   Mostly Cloudy
5:50 PM 68.0 °F 50.0 °F 52% 29.98 in 6.2 mi West 12.7 mph - N/A   Mostly Cloudy
6:20 PM 66.2 °F 51.8 °F 60% 30.01 in 6.2 mi West 13.8 mph - N/A   Scattered Clouds
6:50 PM 66.2 °F 51.8 °F 60% 30.01 in 6.2 mi West 10.4 mph - N/A   Scattered Clouds
7:20 PM 64.4 °F 53.6 °F 68% 30.01 in 6.2 mi West 10.4 mph - N/A   Scattered Clouds
7:50 PM 64.4 °F 53.6 °F 68% 30.01 in 6.2 mi West 8.1 mph - N/A   Scattered Clouds
8:20 PM 64.4 °F 53.6 °F 68% 30.01 in 6.2 mi WSW 5.8 mph - N/A   Scattered Clouds
8:50 PM 64.4 °F 53.6 °F 68% 30.04 in 6.2 mi WSW 5.8 mph - N/A   Scattered Clouds
9:00 PM 64 °F 53 °F 59% 30.03 in 6 mi West 6.9 mph - -   Partly Cloudy
9:20 PM 64.4 °F 53.6 °F 68% 30.04 in 6.2 mi Variable 3.5 mph - N/A   Scattered Clouds
9:50 PM 64.4 °F 53.6 °F 68% 30.04 in 6.2 mi WSW 6.9 mph - N/A   Scattered Clouds
10:20 PM 62.6 °F 53.6 °F 72% 30.04 in 6.2 mi WSW 5.8 mph - N/A   Scattered Clouds
10:50 PM 62.6 °F 53.6 °F 72% 30.01 in 6.2 mi SW 4.6 mph - N/A   Scattered Clouds
11:20 PM 62.6 °F 53.6 °F 72% 30.01 in 6.2 mi WSW 4.6 mph - N/A   Partly Cloudy
11:50 PM 62.6 °F 53.6 °F 72% 30.01 in 6.2 mi SW 4.6 mph - N/A   Partly Cloudy